weather.gov     
National Weather Service

Terminal Aerodrome Forecast
NWS Homepage
This page is being discontinued on March 12, 2014.
The same data is available at this site. Please update your bookmarks.
Thank you, and we apologize for the inconvenience.
Please send an email to SR-SRH.Webmaster@noaa.gov with any concerns.


Current Version
Previous Version:    01  02  03  04  05  06  07  08  09  10  11  12  13  14  15  16  17  18  19  20  21  22  23  24  25  26  27  28  29  
[Printable]
257
FTUS43 KDTX 200500
TAFDET
TAF
KDET 200520Z 2006/2106 15005KT P6SM BKN250
     FM201100 21009KT P6SM SCT150 BKN250
     FM201500 22013G22KT P6SM BKN120
     FM202200 24012KT 6SM SHRA BKN050 BKN100
     FM210300 24008KT P6SM BKN030 OVC050=


U.S. Dept. of Commerce
NOAA National Weather Service
1325 East West Highway
Silver Spring, MD 20910
E-mail: w-nws.webmaster@noaa.gov
Page last modified: May 16, 2007
NATIONAL WEATHER SERVICE: for Safety, for Work, for Fun - FOR LIFE